sat.trackr.live / text

‹ back to catalog

STARLINK-35427

NORAD 66110 · 2025-236AA

PAYLOAD ACTIVE UNKNOWN

§ Identity

Operator
Country
US
Launch date
2025-10-19
Launch site
AFWTR
Launch vehicle
Mass (kg)
RCS (m²)

Purposes: comms

External: N2YO · Heavens-Above · Gunter

§ Orbital elements

Epoch: 2026-09-20T05:17:18.169152Z

Period
93.85 min
Inclination
53.1579°
Eccentricity
0.0001180
Mean motion
15.34396990 rev/d
Perigee alt
461.9 km
Apogee alt
463.5 km
Semi-major
6,840.8 km
B*
6.8190e-4
RAAN
279.1969°
Arg perigee
91.5934°
Mean anomaly
268.5204°
Rev number
5,274

§ Raw data

STARLINK-354271 66110U 25236AA  26263.22034918  .00022731  00000+0  68190-3 0  99912 66110  53.1579 279.1969 0001180  91.5934 268.5204 15.34396990 52744

JSON: /api/v1/satellites/66110 · /tle

For live sub-satellite position, see the globe view (requires WebGL).

§ Visibility from observer

Set your observer location to see the next 7 days of passes ≥ 10°. The values pass through the URL so the page stays shareable.

No JS? Fill the form by hand. The geolocation button needs JavaScript.